アトラス彗星

C/2020 P3 ( ATLAS )

English version
Home page
Updated on February 20, 2021

---------------------------------------------------------------------

・ プロフィール

発見日 2020年8月9日
発見光度 19.0等
発見者 Asteroid Terrestrial-Impact Last Alert System (ATLAS) search program

・ 写真集

・ 軌道要素

Epoch 2021 Apr. 16.0 TT = JDT 2459320.5
T 2021 Apr. 20.87389 TT                                 Rudenko
q   6.8123010            (2000.0)            P               Q
z  +0.0001607      Peri.   82.24725     -0.02860415     -0.95530166
 +/-0.0000021      Node    19.48807     +0.09751765     -0.29562891
e   0.9989051      Incl.   61.88502     +0.99482265     +0.00151127
From 335 observations 2020 Aug. 9-2021 Jan. 18, mean residual 0".5.

・ 光度変化

        m1 = 5.5 + 5 logΔ + 10.0 log r

---------------------------------------------------------------------

軌道要素はM.P.E.C. 2021-B143に掲載されたものです。
光度グラフはComet for Windowsで作成したものです。

---------------------------------------------------------------------

Copyright(C) Seiichi Yoshida (comet@aerith.net). All rights reserved.